Tracking 26935 objects as of 4-Feb-2023
HD Live streaming from Space Station
objects crossing your sky now

SL-8 DEB *

Track SL-8 DEB * now!
10-day predictions


NORAD ID: 18512
Int'l Code: 1977-119E
Perigee: 645.9 km
Apogee: 654.2 km
Inclination: 74.0 °
Period: 97.6 minutes
Semi major axis: 7021 km
RCS: 0.0059 m2 (small)
Launch date: December 16, 1977
Source: Commonwealth of Independent States (former USSR) (CIS)
Launch site: PLESETSK MISSILE AND SPACE COMPLEX (PKMTR)

Note: This is SATELLITE DEBRIS
Your satellite tracking list
Your tracking list is empty




NASA's NSSDC Master Catalog

Two Line Element Set (TLE):
1 18512U 77119E   23035.31590953  .00004828  00000-0  71026-3 0  9991
2 18512  74.0330 129.4066 0005902 305.3024 111.1399 14.75699986 25957
Source of the keplerian elements: AFSPC